Inquirer Daily News

Weather

Get conditions and forecasts for any City, State, ZIP code or Country:  
Trenton, NJ
on Tuesday, January 1, 2013

Tuesday
Previous Day Next Day
Daily Summary
 ActualAverageRecord
Temperature
Mean Temperature °F 32°F  
Max Temperature 41°F 40°F 64°F (2005)
Min Temperature 28°F 24°F -10°F (1881)
Degree Days
Heating Degree Days 30 33  
Month to date heating degree days 30 33  
Since 1 July heating degree days 1788 1928  
Cooling Degree Days 0 0  
Month to date cooling degree days 0 0  
Year to date cooling degree days 0 0  
Moisture
Dew Point 24°F   
Average Humidity 62    
Maximum Humidity 70    
Minimum Humidity 53    
Precipitation
Precipitation 0.00 in 0.11 in 1.36 in (2007)
Month to date precipitation 0.00 0.11  
Year to date precipitation 0.00 0.11  
Wind
Wind Speed 8 mph   
Max Wind Speed 14 mph   
Max Gust Speed 22 mph   
Visibility 10 miles   
Events     

Key: T is trace of precipitation, MM is missing value
Source: NWS Daily Summary
Time(EST)TemperatureDew PointHumidity Pressure Visibility Wind DirectionWind SpeedGust SpeedPrecipitationEvents Conditions
1:53 AM 39.9°F 28.0°F 63% 29.89 in 10.0 miles West 6.9 mph - N/A   Overcast
2:53 AM 39.9°F 28.0°F 63% 29.91 in 10.0 miles WNW 5.8 mph - N/A   Overcast
3:53 AM 39.9°F 28.0°F 63% 29.91 in 10.0 miles WNW 4.6 mph - N/A   Overcast
4:53 AM 39.0°F 28.0°F 65% 29.89 in 10.0 miles NW 6.9 mph - N/A   Scattered Clouds
5:53 AM 37.9°F 28.0°F 68% 29.90 in 10.0 miles WNW 6.9 mph - N/A   Scattered Clouds
6:53 AM 37.9°F 28.0°F 68% 29.91 in 10.0 miles WNW 5.8 mph - N/A   Overcast
7:53 AM 37.9°F 28.0°F 68% 29.91 in 10.0 miles WNW 6.9 mph - N/A   Partly Cloudy
9:53 AM 39.0°F 28.0°F 65% 29.92 in 10.0 miles West 8.1 mph - N/A   Mostly Cloudy
10:53 AM 39.0°F 27.0°F 62% 29.92 in 10.0 miles WNW 10.4 mph - N/A   Mostly Cloudy
11:53 AM 39.0°F 27.0°F 62% 29.89 in 10.0 miles West 12.7 mph - N/A   Overcast
12:53 PM 39.0°F 27.0°F 62% 29.88 in 10.0 miles WNW 9.2 mph - N/A   Overcast
1:53 PM 39.0°F 27.0°F 62% 29.85 in 10.0 miles WNW 9.2 mph - N/A   Clear
2:53 PM 39.0°F 27.0°F 62% 29.85 in 10.0 miles NW 4.6 mph - N/A   Overcast
3:53 PM 37.0°F 28.0°F 70% 29.89 in 10.0 miles NNE 8.1 mph - N/A   Overcast
5:53 PM 36.0°F 25.0°F 64% 29.90 in 10.0 miles NNW 5.8 mph - N/A   Mostly Cloudy
6:31 PM 35.6°F 24.8°F 65% 29.95 in 10.0 miles North 12.7 mph - N/A   Mostly Cloudy
6:42 PM 35.6°F 21.2°F 56% 29.95 in 10.0 miles North 11.5 mph - N/A   Scattered Clouds
6:53 PM 35.1°F 21.0°F 57% 29.94 in 10.0 miles North 9.2 mph - N/A   Partly Cloudy
7:53 PM 34.0°F 19.9°F 56% 29.96 in 10.0 miles North 8.1 mph - N/A   Clear
8:53 PM 32.0°F 17.1°F 54% 29.97 in 10.0 miles North 8.1 mph - N/A   Clear
9:53 PM 30.9°F 16.0°F 54% 29.98 in 10.0 miles North 9.2 mph - N/A   Clear
10:53 PM 30.0°F 16.0°F 56% 30.00 in 10.0 miles NNE 5.8 mph - N/A   Clear
11:53 PM 28.9°F 14.0°F 54% 30.01 in 10.0 miles North 12.7 mph - N/A   Clear
Astronomy
Sunrise:07:22 AM (EST) Moon Rise:09:13 PM (EST)1/1
Sunset:04:44 PM (EST) Moon Set:09:32 AM (EST)1/1
Moon Phase
Jan. 01 Jan. 04 Jan. 11 Jan. 18 Jan. 26

Copyright © 2014 The Weather Underground, Inc.